Flag for Germany Weather past 2 weeks in Siegen, North Rhine-Westphalia, Germany

Now
68 °F

Passing clouds.


Feels Like: 68 °F
Forecast: 47 / 61 °F
Wind: 14 mph from South

Location: Hessen

Current Time: May 5, 2015 at 1:20:54 PM

Latest Report: May 5, 2015 at 12:50 PM


Visibility: N/A

Pressure: 29.62 "Hg

Humidity: 64%

Dew point: 55 °F

Location of SiegenLocation

Historic Weather in Siegen — Graph

°F

Siegen temperature yesterday

Maximum temperature yesterday: 64 °F (at 2:50 PM)
Minimum temperature yesterday: 52 °F (at 7:20 AM)
Average temperature yesterday: 59 °F

Past Weeks' High & Low Weather Summary

 TemperatureHumidityPressure
High68 °F (Apr 21, 3:20 PM)100% (Apr 25, 12:20 PM)30.42 "Hg (Apr 25, 12:20 PM)
Low32 °F (Apr 28, 6:50 AM)30% (Apr 21, 1:20 PM)29.59 "Hg (Apr 27, 7:50 AM)
Average52 °F69%29.94 "Hg
* Reported Apr 20 11:20 AM — May 5 11:50 AM, Siegen, Weather by CustomWeather, © 2015

Note: Actual official high and low records may vary slightly from our data, if they occured in-between our weather recording intervals... More about our weather records

Advertising

Siegen weather history for previous 24 hours

 ConditionsComfort  
Time TempWeatherWind HumidityBarometerVisibility
11:50 AM
Tue, May 5
64 °FPassing clouds.15 mph78%29.62 "HgN/A
11:20 AM63 °FPassing clouds.17 mph77%29.62 "HgN/A
10:50 AM61 °FSunny.16 mph88%29.62 "Hg10 mi
10:20 AM61 °FScattered showers. Clear.15 mph88%29.59 "HgN/A
9:50 AM61 °FScattered showers. Clear.14 mph88%29.59 "HgN/A
9:20 AM61 °FScattered showers. Sunny.14 mph83%29.59 "HgN/A
8:50 AM61 °FScattered showers. Partly sunny.12 mph83%29.59 "HgN/A
8:20 AM61 °FLight rain. Partly sunny.16 mph83%29.59 "HgN/A
7:50 AM59 °FScattered showers. Partly sunny.14 mph88%29.59 "HgN/A
9:50 PM
Mon, May 4
57 °FSunny.8 mph77%29.74 "Hg10 mi
9:20 PM57 °FSunny.9 mph77%29.74 "Hg10 mi
8:50 PM57 °FSunny.8 mph77%29.74 "Hg10 mi
8:20 PM59 °FSunny.8 mph72%29.77 "Hg10 mi
7:50 PM61 °FSunny.7 mph68%29.77 "Hg10 mi
7:20 PM61 °FSunny.8 mph68%29.77 "Hg10 mi
6:50 PM63 °FSunny.7 mph64%29.80 "Hg10 mi
6:20 PM64 °FPassing clouds.8 mph56%29.80 "HgN/A
5:50 PM64 °FScattered clouds.8 mph56%29.83 "HgN/A
5:20 PM64 °FScattered clouds.8 mph60%29.83 "HgN/A
4:50 PM64 °FScattered clouds.8 mph56%29.83 "HgN/A
4:20 PM64 °FScattered clouds.7 mph56%29.83 "HgN/A
3:50 PM64 °FScattered clouds.9 mph52%29.83 "HgN/A
3:20 PM64 °FScattered clouds.8 mph56%29.83 "HgN/A
2:50 PM64 °FScattered clouds.9 mph56%29.83 "HgN/A
2:20 PM63 °FScattered clouds.12 mph59%29.83 "HgN/A
1:50 PM63 °FScattered clouds.12 mph59%29.83 "HgN/A
1:20 PM61 °FScattered clouds.12 mph63%29.83 "HgN/A
Weather by CustomWeather, © 2015

See weather overviewHow to use our weather pages